Cloud_Cover
0 5 31 0 0 0 0 0 0 0 0 0 0 0 0 0 0 0 0 0 0 0 0 0 3 27 42 28 77 90 88 69 13 5 12 5 5 5 5 5 5 5 5
42 77 100 99 0 0 0 0 0 0 0 0 0 0 0 0 0 0 0 0 0 0 0 5 10 96 97 99 100 17 77 6 5 17 5 5 5 5 5 5 5 17 92
5 13 99 100 5 0 0 0 0 0 0 0 0 0 0 0 0 0 0 0 0 0 2 5 94 100 100 100 99 95 14 31 5 97 14 5 5 5 25 53 25 36 5
39 36 48 100 92 5 4 0 0 0 0 0 0 0 0 0 0 0 0 0 0 0 1 5 68 100 100 100 100 68 37 57 100 54 90 5 15 29 11 13 94 100 60
0 16 83 50 95 100 61 3 0 0 0 0 0 0 0 0 0 0 0 0 1 1 5 71 97 100 100 100 100 99 34 99 100 19 33 53 32 24 6 12 99 100 100
4 2 3 0 0 0 2 0 0 0 0 0 0 0 0 0 0 0 0 2 5 5 5 42 100 100 100 73 100 58 100 100 100 99 11 52 77 29 46 90 100 100 100
63 18 5 4 0 0 0 0 0 0 0 0 0 0 0 0 0 0 0 6 7 5 5 41 85 100 83 100 100 100 100 100 100 100 100 99 99 100 13 87 100 100 100
100 100 82 90 69 0 5 0 0 0 0 0 1 0 0 0 0 0 5 7 5 5 16 60 100 96 100 100 100 100 100 100 100 100 100 58 80 29 5 4 10 31 32
97 48 67 100 99 5 5 3 0 0 0 0 2 18 0 0 6 2 2 5 14 5 49 100 100 95 100 100 100 100 100 96 100 100 100 90 89 27 12 73 98 98 34
0 12 100 100 100 76 70 73 97 88 60 48 54 13 2 5 57 11 7 16 71 72 100 100 100 96 100 100 100 100 8 56 100 100 65 12 3 10 34 5 1 0 0
5 4 79 100 52 72 100 100 86 100 100 90 91 99 99 66 74 73 100 100 100 100 100 100 100 84 100 97 82 61 34 100 100 57 100 75 30 4 0 0 0 0 0
84 48 6 2 12 18 7 16 99 93 98 92 100 100 100 82 80 99 100 100 100 100 100 100 100 100 63 83 84 52 91 100 100 99 94 66 4 0 0 0 0 0 0
44 14 5 61 77 100 89 24 92 84 87 100 100 100 100 100 100 100 100 100 100 100 100 100 100 100 100 100 100 100 100 100 100 100 100 81 5 0 0 0 0 0 0
34 51 16 2 91 61 39 98 100 100 91 98 100 100 100 100 100 100 100 100 100 100 100 100 100 100 100 100 100 100 100 100 100 100 39 0 4 0 0 0 0 0 0
0 3 10 33 22 15 84 100 100 99 100 100 100 100 100 100 100 100 100 100 100 100 100 100 100 100 100 100 100 100 100 100 100 78 0 0 0 0 0 0 0 0 0
8 0 0 0 0 96 100 100 100 100 100 100 100 100 100 100 100 100 100 100 100 100 100 100 100 100 100 100 100 100 100 100 100 10 0 0 0 0 0 0 0 0 0
40 0 10 36 100 100 100 100 100 100 100 100 100 100 100 100 100 100 100 100 100 100 100 100 100 100 100 100 100 100 100 100 54 1 0 0 0 0 0 0 0 0 0
86 98 92 100 100 100 100 100 100 100 100 100 100 100 100 100 100 100 100 100 100 100 100 100 100 100 100 100 100 100 100 58 6 0 0 0 0 0 0 1 0 0 0
100 100 100 100 100 100 100 100 100 100 100 100 100 100 100 100 100 100 100 100 100 100 100 100 100 100 100 100 100 100 100 11 59 0 0 0 0 3 1 0 0 0 0
100 100 100 100 100 100 100 100 100 100 100 100 100 100 100 100 100 100 100 100 100 100 100 100 100 100 100 100 100 100 32 7 20 1 0 0 0 3 4 4 0 0 0
100 100 80 100 100 100 100 100 100 91 100 100 100 100 100 100 100 100 100 100 100 100 100 100 100 100 100 100 100 94 60 62 28 0 0 0 2 8 5 2 0 0 0
100 80 100 100 100 100 100 100 100 100 100 100 100 100 100 100 100 100 100 100 100 100 100 100 100 100 100 89 97 37 28 76 5 0 0 0 4 5 3 0 0 0 0
100 100 100 100 100 100 100 100 100 100 100 100 100 100 100 89 100 100 100 100 100 100 100 100 100 81 58 6 5 5 11 0 0 0 0 5 5 5 5 5 0 0 0
100 100 100 100 100 100 100 100 100 100 100 100 100 100 100 100 100 100 100 100 100 100 100 100 74 33 37 5 32 90 11 4 2 5 5 6 4 0 0 5 0 0 0
100 100 100 100 100 100 100 100 100 100 100 100 100 100 100 100 100 100 100 100 100 100 96 98 88 33 31 99 100 91 5 5 5 5 5 0 4 2 5 4 0 5 0
100 100 100 100 99 100 100 100 100 100 100 100 100 100 100 100 100 100 100 100 100 100 100 77 61 93 86 87 41 27 6 17 32 5 4 0 4 5 10 0 0 0 2